Time,TemperatureF,DewpointF,PressureIn,WindDirection,WindDirectionDegrees,WindSpeedMPH,WindSpeedGustMPH,Humidity,HourlyPrecipIn,Conditions,Clouds,dailyrainin,SoftwareType,DateUTC
2013-10-19 00:22:00,51.0,45.0,30.02,NNE,12,0.0,0.0,79,0.00,,,0.00,,2013-10-19 05:22:00,
2013-10-19 00:42:00,51.0,45.0,30.02,NNE,12,0.0,0.0,80,0.00,,,0.00,,2013-10-19 05:42:00,
2013-10-19 00:52:00,51.0,45.0,30.01,NNE,12,0.0,0.0,81,0.00,,,0.00,,2013-10-19 05:52:00,
2013-10-19 01:22:00,51.0,46.0,30.00,NNE,12,0.0,0.0,82,0.00,,,0.00,,2013-10-19 06:22:00,
2013-10-19 01:42:00,51.0,46.0,30.00,NNE,12,0.0,0.0,84,0.03,,,0.03,,2013-10-19 06:42:00,
2013-10-19 01:52:00,51.0,47.0,30.00,NNE,12,0.0,0.0,85,0.04,,,0.04,,2013-10-19 06:52:00,
2013-10-19 02:11:00,51.0,47.0,30.00,NNE,12,0.0,0.0,86,0.05,,,0.05,,2013-10-19 07:11:00,
2013-10-19 02:22:00,51.0,47.0,30.00,NNE,12,0.0,0.0,86,0.05,,,0.05,,2013-10-19 07:22:00,
2013-10-19 02:42:00,50.0,47.0,29.99,NW,306,1.0,1.0,89,0.03,,,0.06,,2013-10-19 07:42:00,
2013-10-19 02:53:00,50.0,47.0,29.99,NW,306,1.0,1.0,89,0.03,,,0.06,,2013-10-19 07:53:00,
2013-10-19 03:03:00,50.0,47.0,29.99,NW,306,1.0,1.0,89,0.03,,,0.06,,2013-10-19 08:03:00,
2013-10-19 03:11:00,50.0,47.0,29.99,NW,306,1.0,1.0,89,0.03,,,0.06,,2013-10-19 08:11:00,
2013-10-19 03:22:00,50.0,47.0,29.98,NW,306,1.0,1.0,91,0.03,,,0.09,,2013-10-19 08:22:00,
2013-10-19 03:42:00,50.0,48.0,29.96,NW,306,0.0,0.0,92,0.03,,,0.09,,2013-10-19 08:42:00,
2013-10-19 03:52:00,50.0,48.0,29.96,NW,306,0.0,0.0,92,0.02,,,0.09,,2013-10-19 08:52:00,
2013-10-19 04:21:00,50.0,48.0,29.95,WNW,294,4.0,6.0,93,0.00,,,0.09,,2013-10-19 09:21:00,
2013-10-19 04:54:00,49.0,47.0,29.98,West,276,3.0,5.0,94,0.04,,,0.13,,2013-10-19 09:54:00,
2013-10-19 05:13:00,49.0,47.0,29.98,NW,319,3.0,3.0,94,0.06,,,0.15,,2013-10-19 10:13:00,
2013-10-19 05:23:00,49.0,47.0,29.98,NW,319,3.0,3.0,94,0.06,,,0.15,,2013-10-19 10:23:00,
2013-10-19 05:53:00,48.0,47.0,29.98,North,360,3.0,5.0,95,0.03,,,0.17,,2013-10-19 10:53:00,
2013-10-19 06:22:00,48.0,47.0,30.00,NW,315,1.0,5.0,96,0.04,,,0.19,,2013-10-19 11:22:00,
2013-10-19 06:52:00,48.0,47.0,30.01,NW,306,1.0,3.0,96,0.04,,,0.20,,2013-10-19 11:52:00,
2013-10-19 07:02:00,48.0,47.0,30.01,NW,306,1.0,3.0,96,0.04,,,0.20,,2013-10-19 12:02:00,
2013-10-19 07:11:00,48.0,47.0,30.01,NW,306,1.0,3.0,96,0.04,,,0.20,,2013-10-19 12:11:00,
2013-10-19 07:22:00,48.0,47.0,30.01,WNW,300,1.0,4.0,96,0.02,,,0.21,,2013-10-19 12:22:00,
2013-10-19 07:42:00,48.0,47.0,30.00,WNW,286,0.0,2.0,96,0.01,,,0.21,,2013-10-19 12:42:00,
2013-10-19 07:52:00,48.0,47.0,30.00,WNW,286,0.0,2.0,96,0.01,,,0.21,,2013-10-19 12:52:00,
2013-10-19 08:12:00,48.0,47.0,30.04,NW,305,0.0,3.0,96,0.02,,,0.23,,2013-10-19 13:12:00,
2013-10-19 08:22:00,48.0,47.0,30.04,NW,305,0.0,3.0,96,0.02,,,0.23,,2013-10-19 13:22:00,
2013-10-19 08:42:00,47.0,46.0,30.03,NNW,329,4.0,5.0,96,0.02,,,0.23,,2013-10-19 13:42:00,
2013-10-19 08:52:00,47.0,46.0,30.03,NNW,329,4.0,5.0,96,0.02,,,0.23,,2013-10-19 13:52:00,
2013-10-19 09:21:00,47.0,46.0,30.05,West,271,3.0,4.0,96,0.00,,,0.23,,2013-10-19 14:21:00,
2013-10-19 09:42:00,47.0,46.0,30.06,WNW,295,10.0,10.0,95,0.00,,,0.23,,2013-10-19 14:42:00,
2013-10-19 09:52:00,47.0,46.0,30.06,WNW,295,10.0,10.0,95,0.00,,,0.23,,2013-10-19 14:52:00,
2013-10-19 10:22:00,47.0,45.0,30.06,NNW,342,3.0,3.0,93,0.00,,,0.23,,2013-10-19 15:22:00,
2013-10-19 10:55:00,49.0,46.0,30.06,NW,306,2.0,3.0,88,0.01,,,0.24,,2013-10-19 15:55:00,
2013-10-19 11:24:00,49.0,43.0,30.07,West,275,3.0,6.0,79,0.01,,,0.24,,2013-10-19 16:24:00,
2013-10-19 11:53:00,48.0,41.0,30.08,NW,309,6.0,11.0,76,0.00,,,0.24,,2013-10-19 16:53:00,
2013-10-19 12:22:00,50.0,41.0,30.08,NW,306,3.0,6.0,72,0.00,,,0.24,,2013-10-19 17:22:00,
2013-10-19 12:43:00,50.0,41.0,30.08,WNW,296,9.0,10.0,70,0.00,,,0.24,,2013-10-19 17:43:00,
2013-10-19 12:52:00,51.0,40.0,30.07,WSW,247,3.0,6.0,67,0.00,,,0.24,,2013-10-19 17:52:00,
2013-10-19 13:02:00,51.0,40.0,30.07,WSW,247,3.0,6.0,67,0.00,,,0.24,,2013-10-19 18:02:00,
2013-10-19 13:22:00,52.0,40.0,30.06,NW,308,4.0,9.0,63,0.00,,,0.24,,2013-10-19 18:22:00,
2013-10-19 13:52:00,52.0,38.0,30.05,West,267,3.0,8.0,59,0.00,,,0.24,,2013-10-19 18:52:00,
2013-10-19 14:12:00,54.0,40.0,30.05,NW,312,1.0,3.0,60,0.00,,,0.24,,2013-10-19 19:12:00,
2013-10-19 14:22:00,54.0,40.0,30.05,NW,312,1.0,3.0,60,0.00,,,0.24,,2013-10-19 19:22:00,
2013-10-19 14:42:00,55.0,39.0,30.04,WNW,288,4.0,8.0,55,0.00,,,0.24,,2013-10-19 19:42:00,
2013-10-19 14:52:00,54.0,37.0,30.05,West,263,10.0,10.0,52,0.00,,,0.24,,2013-10-19 19:52:00,
2013-10-19 15:12:00,55.0,38.0,30.04,West,281,1.0,6.0,52,0.00,,,0.24,,2013-10-19 20:12:00,
2013-10-19 15:22:00,56.0,38.0,30.04,West,259,3.0,6.0,50,0.00,,,0.24,,2013-10-19 20:22:00,
2013-10-19 15:32:00,56.0,38.0,30.04,West,259,3.0,6.0,50,0.00,,,0.24,,2013-10-19 20:32:00,
2013-10-19 15:42:00,56.0,38.0,30.04,West,259,3.0,6.0,50,0.00,,,0.24,,2013-10-19 20:42:00,
2013-10-19 15:52:00,56.0,38.0,30.04,West,259,3.0,6.0,50,0.00,,,0.24,,2013-10-19 20:52:00,
2013-10-19 16:21:00,56.0,36.0,30.04,West,265,5.0,8.0,46,0.00,,,0.24,,2013-10-19 21:21:00,
2013-10-19 16:54:00,55.0,36.0,30.04,WNW,291,8.0,8.0,48,0.00,,,0.24,,2013-10-19 21:54:00,
2013-10-19 17:04:00,55.0,36.0,30.04,WNW,291,8.0,8.0,48,0.00,,,0.24,,2013-10-19 22:04:00,
2013-10-19 17:24:00,54.0,35.0,30.05,West,268,2.0,4.0,49,0.00,,,0.24,,2013-10-19 22:24:00,
2013-10-19 17:43:00,54.0,37.0,30.05,WNW,288,0.0,2.0,52,0.00,,,0.24,,2013-10-19 22:43:00,
2013-10-19 17:53:00,54.0,37.0,30.05,WNW,288,0.0,2.0,52,0.00,,,0.24,,2013-10-19 22:53:00,
2013-10-19 18:12:00,54.0,39.0,30.05,WSW,258,0.0,0.0,56,0.00,,,0.24,,2013-10-19 23:12:00,
2013-10-19 18:22:00,54.0,39.0,30.05,WSW,258,0.0,0.0,56,0.00,,,0.24,,2013-10-19 23:22:00,
2013-10-19 18:42:00,51.0,40.0,30.05,WSW,258,0.0,1.0,66,0.00,,,0.24,,2013-10-19 23:42:00,
2013-10-19 18:52:00,51.0,40.0,30.05,WSW,258,0.0,1.0,66,0.00,,,0.24,,2013-10-19 23:52:00,
2013-10-19 19:11:00,48.0,39.0,30.06,WSW,258,0.0,0.0,72,0.00,,,0.24,,2013-10-20 00:11:00,
2013-10-19 19:22:00,48.0,39.0,30.06,WSW,258,0.0,0.0,72,0.00,,,0.24,,2013-10-20 00:22:00,
2013-10-19 19:42:00,46.0,40.0,30.07,WSW,258,0.0,1.0,78,0.00,,,0.24,,2013-10-20 00:42:00,
2013-10-19 19:52:00,46.0,40.0,30.08,WSW,258,0.0,0.0,79,0.00,,,0.24,,2013-10-20 00:52:00,
2013-10-19 20:11:00,45.0,40.0,30.08,WSW,258,0.0,0.0,81,0.00,,,0.24,,2013-10-20 01:11:00,
2013-10-19 20:22:00,45.0,40.0,30.08,WSW,258,0.0,0.0,81,0.00,,,0.24,,2013-10-20 01:22:00,
2013-10-19 20:42:00,44.0,39.0,30.09,WSW,258,0.0,0.0,82,0.00,,,0.24,,2013-10-20 01:42:00,
2013-10-19 20:52:00,44.0,39.0,30.10,WSW,258,0.0,0.0,83,0.00,,,0.24,,2013-10-20 01:52:00,
2013-10-19 21:11:00,44.0,39.0,30.10,WSW,258,0.0,0.0,83,0.00,,,0.24,,2013-10-20 02:11:00,
2013-10-19 21:22:00,44.0,39.0,30.10,WSW,258,0.0,0.0,83,0.00,,,0.24,,2013-10-20 02:22:00,
2013-10-19 21:42:00,44.0,39.0,30.10,WSW,258,0.0,0.0,84,0.00,,,0.24,,2013-10-20 02:42:00,
2013-10-19 21:52:00,44.0,40.0,30.10,WSW,258,0.0,0.0,85,0.00,,,0.24,,2013-10-20 02:52:00,
2013-10-19 22:12:00,44.0,40.0,30.11,WSW,258,0.0,0.0,85,0.00,,,0.24,,2013-10-20 03:12:00,
2013-10-19 22:22:00,44.0,40.0,30.11,WSW,258,0.0,0.0,85,0.00,,,0.24,,2013-10-20 03:22:00,
2013-10-19 22:44:00,43.0,39.0,30.11,WSW,258,0.0,0.0,85,0.00,,,0.24,,2013-10-20 03:44:00,
2013-10-19 22:55:00,43.0,39.0,30.11,WSW,258,0.0,0.0,86,0.00,,,0.24,,2013-10-20 03:55:00,
2013-10-19 23:02:00,-999.0,-99.9,30.11,WSW,258,0.0,0.0,-999,-99.99,,,-99.99,,2013-10-20 04:02:00,
2013-10-19 23:24:00,44.0,40.0,30.11,WSW,258,0.0,0.0,86,0.00,,,0.24,,2013-10-20 04:24:00,
2013-10-19 23:54:00,44.0,40.0,30.11,WSW,246,0.0,0.0,85,0.00,,,0.24,,2013-10-20 04:54:00,